This is the latest recevied weather packets stored in our database for station/object KB9MLJ. If no packets are shown the sender has not sent any weather packets the latest 10 day(s).
| Time | Temp. | Humidity | Pressure | Rain* | Wind** | Luminosity | Snow |
|---|---|---|---|---|---|---|---|
| 1777840790 | 17.78° C | 47% | 1009.2 hPa | 0 mm | - | 441 W/m² | - |
| 1777840488 | 17.78° C | 46% | 1009.2 hPa | 0 mm | - | 255 W/m² | - |
| 1777840184 | 17.78° C | 45% | 1009.5 hPa | 0 mm | - | 324 W/m² | - |
| 1777839883 | 17.78° C | 46% | 1009.2 hPa | 0 mm | - | 293 W/m² | - |
| 1777839581 | 17.22° C | 47% | 1009.5 hPa | 0 mm | - | 306 W/m² | - |
| 1777839278 | 17.22° C | 47% | 1009.5 hPa | 0 mm | - | 275 W/m² | - |
| 1777838976 | 17.22° C | 45% | 1009.9 hPa | 0 mm | - | 240 W/m² | - |
| 1777838672 | 17.78° C | 45% | 1009.9 hPa | 0 mm | - | 292 W/m² | - |
| 1777838368 | 17.78° C | 44% | 1009.9 hPa | 0 mm | - | 763 W/m² | - |
| 1777838066 | 17.78° C | 45% | 1009.5 hPa | 0 mm | - | 401 W/m² | - |
| 1777837762 | 17.78° C | 46% | 1009.9 hPa | 0 mm | - | 436 W/m² | - |
| 1777837459 | 17.22° C | 48% | 1010.2 hPa | 0 mm | - | 429 W/m² | - |
| 1777837154 | 17.22° C | 48% | 1010.2 hPa | 0 mm | - | 461 W/m² | - |
| 1777836850 | 16.67° C | 47% | 1010.2 hPa | 0 mm | - | 402 W/m² | - |
| 1777836546 | 16.67° C | 47% | 1010.2 hPa | 0 mm | - | 318 W/m² | - |
| 1777836242 | 16.67° C | 49% | 1010.5 hPa | 0 mm | - | 288 W/m² | - |
| 1777835938 | 17.22° C | 48% | 1010.2 hPa | 0 mm | - | 248 W/m² | - |
| 1777835636 | 17.22° C | 48% | 1010.2 hPa | 0 mm | - | 500 W/m² | - |
| 1777835332 | 17.22° C | 48% | 1010.5 hPa | 0 mm | - | 802 W/m² | - |
| 1777835029 | 17.22° C | 51% | 1010.5 hPa | 0 mm | - | 446 W/m² | - |
| 1777834726 | 16.67° C | 52% | 1010.9 hPa | 0 mm | - | 709 W/m² | - |
| 1777834423 | 16.67° C | 52% | 1010.5 hPa | 0 mm | - | 688 W/m² | - |
| 1777834122 | 16.67° C | 53% | 1011.2 hPa | 0 mm | - | 366 W/m² | - |
| 1777833819 | 16.11° C | 52% | 1010.9 hPa | 0 mm | - | 392 W/m² | - |
| 1777833514 | 16.11° C | 52% | 1011.2 hPa | 0 mm | - | 324 W/m² | - |
* Rain latest hour (hover to see other rain measurements)
** Current wind speed in m/s (hover to see current wind gust speed)